Regional Weather Roundup
Issued by NWS

Home | Current Version | Previous Version | Graphics & Text | Print | Product List | Glossary On
Versions: 1 2 3 4 5 6 7 8 9 10 11 12 13 14 15 16 17 18 19 20 21 22 23 24 25 26 27 28 29 30 31 32 33 34 35 36 37 38 39 40 41 42 43 44 45 46 47 48 49 50
000
ASUS43 KLOT 131100
RWRIL

ILLINOIS REGIONAL WEATHER ROUNDUP
NATIONAL WEATHER SERVICE CHICAGO/ROMEOVILLE IL
600 AM CDT SUN JUL 13 2014

NOTE: "FAIR" INDICATES FEW OR NO CLOUDS BELOW 12,000 FEET WITH NO
SIGNIFICANT WEATHER AND/OR OBSTRUCTIONS TO VISIBILITY.

* THESE STATIONS ARE NOT UNDER NWS QUALITY CONTROL. THEY ALSO MAY NOT
  REPORT WEATHER SUCH AS PRECIPITATION OR FOG.

ILZ001-002-007-009-015-016-024-131200-
NORTHWEST ILLINOIS

CITY           SKY/WX    TMP DP  RH WIND       PRES   REMARKS
MOLINE         CLOUDY    66  64  93 W3        29.96R
STERLING*      CLOUDY    64  61  88 W6        29.95S
$$

ILZ003-004-008-010-011-017-018-131200-
NORTH CENTRAL ILLINOIS

CITY           SKY/WX    TMP DP  RH WIND       PRES   REMARKS
ROCKFORD       MOCLDY    65  63  93 W6        29.96R
$$

ILZ005-006-012>014-019>023-131200-
NORTHEAST ILLINOIS

CITY           SKY/WX    TMP DP  RH WIND       PRES   REMARKS
CHICAGO-OHARE  MOCLDY    69  64  84 W5        29.90R
CHICAGO-MIDWAY MOCLDY    71  69  93 W6        29.90R
AURORA         MOCLDY    67  64  90 NW6       29.92S FOG
WAUKEGAN       PTCLDY    65  63  93 VRB3      29.90R FOG
DUPAGE AIRPORT CLOUDY    68  65  90 NW6       29.91S
WHEELING       MOCLDY    69  66  90 W5        29.91S
NORTHERLY ISL    N/A     70  67  90 W5          N/A
$$

LMZ740>746-131200-
SOUTHERN LAKE MICHIGAN

STATION/POSITION SKY/WX   TEMP    WIND        PRES    VSBY  WAVE
                          AIR SEA DIR/SP/G                  HT/PER
                          (F)     (DEG/KT/KT) (MB)    (MI)  (FT/S)
SOUTHERN BUOY              66 64  290/ 10/ 12 1010.9R         2/ 4
WAUKEGAN HARBOR            66     250/  6/  9 1013.5R
HARRISON CRIB              70     270/ 10/ 11   N/A
BURNHAM HARBOR             71     270/  5/ 12   N/A
CALUMET HARBOR             71     260/  2/  5 1013.0R
MICHIGAN CITY              71     250/ 15/ 18   N/A
$$

ILZ025>027-034>036-040-047-049-050-058-095>099-131200-
WEST-CENTRAL ILLINOIS

CITY           SKY/WX    TMP DP  RH WIND       PRES   REMARKS
QUINCY         CLOUDY    73  71  93 W3        29.98S
$$

ILZ028>032-037-038-041>044-048-051>054-059>061-131200-
CENTRAL ILLINOIS

CITY           SKY/WX    TMP DP  RH WIND       PRES   REMARKS
DECATUR        RAIN      71  68  90 W6        30.00S
PEORIA         CLOUDY    72  69  90 NW6       29.97R
SPRINGFIELD    CLOUDY    74  71  91 SW6       29.97F
TAYLORVILLE    NOT AVBL
$$

ILZ033-039-045-046-055>057-062-063-131200-
EAST-CENTRAL ILLINOIS

CITY           SKY/WX    TMP DP  RH WIND       PRES   REMARKS
CHAMPAIGN      TSTM      72  69  90 W17G25    29.99R
MATTOON        MOCLDY    74  71  91 W7        30.00R
$$

ILZ079-100>102-131200-
SOUTHWEST ILLINOIS

CITY           SKY/WX    TMP DP  RH WIND       PRES   REMARKS
BELLEVILLE     PTCLDY    73  73  99 CALM      29.98R
CAHOKIA*       PTCLDY    77  71  82 N5        30.00R
$$

ILZ064>066-069>071-074>076-080>082-084>086-088>090-092>094-131200-
SOUTH-CENTRAL ILLINOIS

CITY           SKY/WX    TMP DP  RH WIND       PRES   REMARKS
CARBONDALE     PTCLDY    77  72  84 SW7       30.02R
MT. VERNON     CLEAR     73  68  83 CALM      30.02R
$$

ILZ067-068-072-073-078-083-087-091-131200-
SOUTHEAST ILLINOIS

CITY           SKY/WX    TMP DP  RH WIND       PRES   REMARKS
$$

ABBREVIATIONS USED IN REMARKS
   TC - TEMPERATURE IN CELSIUS
  WCI - WIND CHILL INDEX
   HX - HEAT INDEX
  VSB - VISIBILITY
$$




USA.gov is the U.S. government's official web portal to all federal, state and local government web resources and services.